Regional Weather Roundup
Issued by NWS

Home | Current Version | Previous Version | Text Only | Print | Product List | Glossary Off
Versions: 1 2 3 4 5 6 7 8 9 10 11 12 13 14 15 16 17 18 19 20 21 22 23 24 25 26 27 28 29 30 31 32 33 34 35 36 37 38 39 40 41 42 43 44 45 46 47 48 49 50

000
ASUS45 KPSR 172310
RWRAZ

ARIZONA REGIONAL HOURLY WEATHER ROUNDUP
NATIONAL WEATHER SERVICE PHOENIX AZ
400 PM MST WED SEP 17 2014

NOTE: FAIR INDICATES FEW OR NO CLOUDS BELOW 12,000 FEET WITH NO
SIGNIFICANT WEATHER AND/OR OBSTRUCTIONS TO VISIBILITY.

AZZ001>003-036-180000-
NORTHWEST ARIZONA

CITY           SKY/WX    TMP DP  RH WIND       PRES   REMARKS
BULLHEAD CITY  MOSUNNY   97  63  32 SW8       29.70F
KINGMAN        CLOUDY    83  59  44 CALM      29.90F
$$

AZZ004>008-015-016-018-180000-
NORTH CENTRAL ARIZONA

CITY           SKY/WX    TMP DP  RH WIND       PRES   REMARKS
GRAND CANYON   SUNNY     73  45  36 E12G18    30.13F
PRESCOTT       PTSUNNY   74  57  55 N9        30.01F
FLAGSTAFF      PTSUNNY   67  53  61 E9        30.16F
PAYSON         CLOUDY    68  61  77 NE9       30.05F
PAGE           PTSUNNY   84  54  35 S8        29.95F
$$

AZZ009>014-017-180000-
NORTHEAST ARIZONA

CITY           SKY/WX    TMP DP  RH WIND       PRES   REMARKS
WINSLOW        MOSUNNY   76  59  55 VRB3      30.03F
SAINT JOHNS    CLOUDY    73  54  51 SE6       30.07F
WINDOW ROCK    PTSUNNY   74  44  34 SE8       30.14F
SHOW LOW       LGT RAIN  63  57  82 SE8       30.15S
$$

AZZ023-180000-
GREATER PHOENIX AREA

CITY           SKY/WX    TMP DP  RH WIND       PRES   REMARKS
PHOENIX        PTSUNNY   86  68  54 NE6       29.75F
BUCKEYE          N/A     84  68  58 NE7       29.75F
GLENDALE       PTSUNNY   86  70  58 CALM      29.77F
LUKE AFB       PTSUNNY   87  70  58 VRB3      29.75F
DEER VALLEY    MOSUNNY   88  65  46 SE8       29.77F
SCOTTSDALE     PTSUNNY   84  70  62 SE8       29.79F
MESA-GATEWAY   PTSUNNY   84  68  58 N9        29.79F
CHANDLER       PTSUNNY   84  72  65 N14       29.76F
$$

AZZ027-028-180000-
SOUTHWEST MARICOPA COUNTY AND PINAL COUNTY

CITY           SKY/WX    TMP DP  RH WIND       PRES   REMARKS
CASA GRANDE    CLOUDY    88  64  45 E12G17    29.77S
GILA BEND      MOCLDY    90  64  43 E7        29.73F
$$

AZZ503-504-507>509-180000-
SOUTHEAST ARIZONA

CITY           SKY/WX    TMP DP  RH WIND       PRES   REMARKS
TUCSON         CLOUDY    81  66  60 SE13      29.84S
DAVIS-MONTHAN  PTSUNNY   80  65  60 E18       29.82S
RYAN FIELD       N/A     82  64  54 SE22G30   29.81F
NOGALES        HVY RAIN  65  64  97 NW5       29.88F FOG
SIERRA VISTA   LGT RAIN  64  63  94 SE16G22   29.96F FOG
DOUGLAS        RAIN      67  64  90 E8        29.97F
SAFFORD        HVY RAIN  67  66  97 SE16      29.92R VSB 1/2
$$

AZZ020-021-025-026-031-180000-
SOUTHWEST ARIZONA

CITY           SKY/WX    TMP DP  RH WIND       PRES   REMARKS
YUMA           PTSUNNY   99  63  30 NW5       29.65F HX 101
$$

CAZ031-033-041-043-047-048-061-180000-
SOUTHERN CALIFORNIA

CITY           SKY/WX    TMP DP  RH WIND       PRES   REMARKS
DOWNTOWN L.A.  SUNNY     89  53  29 CALM      29.70F
L.A. AIRPORT   MOSUNNY   83  53  35 W16       29.72F
SAN DIEGO      MOSUNNY   83  61  47 NW13      29.73S
BURBANK        SUNNY     94  52  24 S8        29.72F
ONTARIO        MOSUNNY   97  58  27 SW13      29.71F
RIVERSIDE      MOSUNNY   96  60  30 W15G23    29.71S
PALM SPRINGS   MOSUNNY  102  62  26 SE7       29.67F HX 104
EL CENTRO NAS  MOSUNNY   99  63  30 SE5       29.63F HX 101
IMPERIAL       SUNNY    100  65  31 E6        29.63F HX 103
BLYTHE         SUNNY     98  64  32 VRB5      29.68F HX 100
NEEDLES        SUNNY     98  60  28 NE5       29.71F
$$

NVZ020-UTZ003-180000-
SOUTHERN NEVADA-UTAH

CITY           SKY/WX    TMP DP  RH WIND       PRES   REMARKS
LAS VEGAS      MOSUNNY   95  54  25 S7        29.74F
SALT LAKE CITY MOSUNNY   94  38  14 VRB6      29.87F
$$

NMZ009-TXZ055-180000-
NEW MEXICO-WEST TEXAS

CITY           SKY/WX    TMP DP  RH WIND       PRES   REMARKS
ALBUQUERQUE    CLOUDY    69  56  62 NW5       30.11F
EL PASO        PTSUNNY   82  62  50 NE13      29.94F
$$


........................KEY........................
SKY/WX - SKY CONDITION/WEATHER
TMP    - TEMPERATURE IN FAHRENHEIT
DP     - DEW POINT IN FAHRENHEIT
RH     - RELATIVE HUMIDITY IN PERCENT
WIND   - DIRECTION AND SPEED IN MILES PER HOUR (MPH)
VRB    - VARIABLE WIND DIRECTION
PRES   - MEAN SEA LEVEL PRESSURE IN INCHES OF MERCURY
         F - FALLING PRESSURE   R - RISING PRESSURE
         S - STEADY PRESSURE
VSB    - VISIBILITY IN MILES
HX     - HEAT INDEX IN FAHRENHEIT
WCI    - WIND CHILL INDEX IN FAHRENHEIT
TC     - TEMPERATURE IN CELSIUS WHICH IS ALSO KNOWN AS
         TEMPERATURE IN CENTIGRADE
AFB    - AIR FORCE BASE
         LUKE AFB IS LUKE AIR FORCE BASE
         DAVIS-MONTHAN IS DAVIS-MONTHAN AIR FORCE BASE
NAS    - NAVAL AIR STATION
         EL CENTRO NAS IS EL CENTRO NAVAL AIR STATION
N/A    - NOT AVAILABLE


USA.gov is the U.S. government's official web portal to all federal, state and local government web resources and services.